Simultaneous Nadir Overpasses (SNOs) Predictions

Prediction of SNOs near US between AQUA and NPP Satellite Orbit:

Table of predicted SNOs near US for the next 10.0 days since TLE Epoch: 4/17/2020
Index Date (AQUA) Time (AQUA) AQUA Lat,Lon Date (NPP) Time (NPP) NPP Lat,Lon Distance(km) Time Diff (sec)
1 04/19/2020 18:17:13 49.98, -80.20 04/19/2020 18:10:10 49.69, -81.74 115.50 423
2 04/19/2020 19:56:06 49.97,-104.92 04/19/2020 19:51:38 49.58,-107.07 160.74 268
3 04/19/2020 21:31:15 36.62,-124.99 04/19/2020 21:29:16 36.14,-127.55 235.23 119
4 04/22/2020 09:24:47 20.03,-114.26 04/22/2020 09:16:27 19.89,-114.77 55.43 500
5 04/25/2020 06:30:56 45.15, -65.51 04/25/2020 06:30:33 45.49, -67.52 161.92 23
6 04/25/2020 08:08:29 49.90, -88.38 04/25/2020 08:10:38 50.38, -90.85 183.91 129
7 04/25/2020 09:47:22 49.90,-113.10 04/25/2020 09:52:06 50.49,-116.17 228.35 284
8 04/27/2020 19:06:37 49.98, -92.56 04/27/2020 19:00:54 49.66, -94.42 138.14 343




NCC Satellite Simultaneous Nadir Overpasses (SNOs) Prediction Service
